RH
68 71 72 73 74 75 76 76 79 83 82 83 83 83 83 81 80 81 82 79 73 67 63 62 62 64 67 69 73 75 73 74 75 76 82 81 77 77 74 70 66 65 68 68 68 67 66 67 70 69 68 68 69 71 75 74 74 75 71 68 68 68 66 67 66 65 65 64 59 56 54 54 55 55 56 56 56 56 56 58 58 58 57 56 55 55 55 54 53 50 48 47 47 46 46 45 45
71 72 72 73 76 77 78 77 82 85 83 84 83 83 83 81 79 79 78 76 74 67 63 63 62 63 64 66 68 73 74 75 76 74 78 79 77 78 75 70 66 67 70 70 71 70 68 69 70 71 70 69 69 71 74 75 75 74 71 68 69 69 68 68 66 64 63 63 59 55 53 53 54 54 54 55 55 55 55 55 55 55 55 55 55 55 54 53 52 51 49 49 49 49 48 48 48
71 73 73 74 77 77 78 78 82 84 84 84 84 84 82 82 80 78 76 73 75 71 64 64 64 63 64 66 66 70 75 78 79 76 76 77 75 76 76 71 67 68 70 72 73 72 71 71 70 71 71 71 70 72 74 74 74 73 70 68 69 71 70 69 67 64 62 62 58 54 53 54 54 53 53 55 56 55 55 54 54 53 53 53 54 53 52 51 51 50 48 48 47 46 46 46 45
71 75 77 77 78 78 80 82 82 82 83 84 85 84 83 84 82 80 79 71 75 76 65 61 62 63 67 68 67 69 73 77 79 78 77 75 71 73 74 70 67 68 70 71 73 73 73 72 71 71 72 72 72 72 74 74 74 73 73 71 71 72 72 70 67 64 62 60 56 52 52 52 52 52 52 54 55 54 54 52 52 52 52 52 52 52 51 50 48 47 46 45 44 43 42 41 41
71 74 77 78 80 79 81 84 83 82 83 84 84 83 83 84 83 82 81 71 74 79 67 60 61 63 68 66 66 70 73 74 77 79 77 73 69 70 70 67 67 69 70 72 73 72 72 72 71 72 72 72 71 71 72 74 75 74 75 75 73 73 73 71 67 64 61 57 54 51 49 50 49 49 51 53 52 50 50 50 49 50 50 49 50 49 48 46 44 44 43 43 43 42 42 42 41
70 72 75 77 78 79 81 84 85 85 85 85 84 83 82 82 83 83 81 73 73 78 67 62 60 63 68 67 68 69 71 72 75 77 74 70 67 69 68 65 67 69 72 72 72 72 73 73 72 73 72 72 71 71 71 74 76 76 76 75 74 74 74 71 66 62 56 52 50 47 45 47 47 48 50 50 48 46 46 46 46 46 45 44 43 43 42 40 39 39 40 40 41 41 41 41 41
69 71 73 77 79 80 83 83 84 86 86 85 85 85 85 82 81 81 82 78 76 75 67 63 61 64 67 66 69 67 68 69 71 73 69 68 68 72 71 66 67 70 71 73 73 73 74 73 72 73 72 72 71 72 73 76 78 80 78 75 73 72 73 69 64 57 51 47 44 43 45 47 46 46 46 45 43 42 42 42 42 41 39 38 37 37 37 36 36 36 36 36 37 37 37 37 39
66 69 72 77 79 82 83 82 84 87 85 84 83 81 83 83 80 80 83 80 79 74 66 64 61 66 66 63 66 65 67 66 66 67 65 66 68 72 71 67 67 67 70 73 74 73 74 75 73 73 72 72 72 74 76 78 80 80 80 77 74 73 73 67 59 52 45 42 38 37 43 46 45 45 41 38 37 37 37 37 36 35 34 34 34 35 35 35 35 35 35 35 36 36 36 39 41
64 68 72 75 77 80 84 85 84 87 87 84 81 78 81 83 80 81 82 79 79 72 64 63 61 67 68 65 66 65 66 65 64 64 65 66 67 67 65 64 65 65 69 71 71 71 74 76 74 74 74 74 73 74 76 78 80 79 79 79 76 75 74 64 53 47 42 38 33 33 38 40 39 36 33 32 32 33 34 34 34 34 35 35 36 36 36 36 36 36 36 36 37 38 41 44 46
60 66 71 74 76 79 85 87 87 88 89 85 81 79 80 82 79 80 81 76 75 71 65 63 61 65 70 69 66 64 65 63 64 67 68 68 66 64 61 62 63 66 68 67 68 69 72 73 73 74 74 74 73 74 74 75 78 80 80 80 78 75 69 57 48 44 39 35 31 32 35 33 31 28 28 29 30 32 33 34 35 35 35 35 36 36 35 35 34 34 35 36 37 40 44 46 48
57 61 65 72 75 77 82 87 88 88 88 85 81 78 78 80 81 79 77 75 74 75 69 63 61 64 69 70 66 65 66 63 63 67 70 69 66 64 62 63 64 65 65 65 68 68 69 70 72 74 74 74 73 74 73 73 76 79 80 80 75 69 58 47 43 42 37 34 32 32 32 31 29 28 29 30 33 34 34 34 33 33 33 33 33 33 32 32 32 33 34 35 37 40 44 46 48
56 56 61 72 74 76 81 84 85 85 87 85 80 77 75 79 83 79 74 73 73 76 70 62 61 64 68 71 69 66 66 66 65 68 70 70 67 66 67 67 65 64 64 66 68 67 67 70 73 74 75 74 74 76 73 73 75 75 75 72 66 57 48 41 41 40 37 34 33 32 31 30 30 31 32 34 36 37 36 35 35 34 34 34 34 33 32 32 32 33 33 33 36 39 41 43 45
56 54 61 71 73 78 80 82 81 82 85 84 81 75 71 78 85 80 73 70 71 74 68 61 60 58 65 72 70 65 63 66 67 69 70 71 69 69 72 73 68 65 66 68 68 67 67 70 72 73 75 75 76 76 73 72 74 72 66 61 55 46 40 39 41 39 37 38 35 32 32 32 32 34 35 36 36 37 37 36 35 35 34 35 34 34 33 33 34 35 35 36 39 40 41 44 47
55 51 59 68 70 76 76 77 79 79 81 82 82 77 75 82 84 80 73 69 70 73 67 64 61 58 67 72 68 63 63 66 68 70 71 72 74 74 75 74 72 68 67 68 67 68 68 69 71 74 76 77 76 75 72 72 73 69 59 52 46 40 41 43 42 39 37 42 38 34 35 35 35 36 37 37 36 36 36 36 35 34 34 33 34 34 35 36 36 37 37 39 42 45 47 52 55
52 48 56 64 64 69 71 72 74 76 76 73 76 77 80 84 82 79 73 68 69 71 69 70 64 58 67 71 64 60 62 66 69 72 71 72 74 74 74 75 76 73 69 69 68 70 71 69 70 74 76 75 75 74 71 71 72 65 54 48 42 39 45 48 45 41 39 42 40 36 37 37 37 37 39 39 37 36 33 33 34 34 33 33 34 35 35 34 35 34 35 38 42 47 51 57 61
48 47 58 62 59 64 69 72 71 73 73 67 68 72 76 80 80 78 71 67 67 69 73 73 63 58 66 68 60 57 59 63 69 73 70 70 72 74 75 76 78 75 71 71 72 72 71 68 70 74 73 73 73 73 70 70 67 59 52 47 43 40 43 46 45 45 43 41 39 39 40 39 39 39 41 41 39 36 31 32 33 32 32 32 33 32 31 32 32 32 33 37 43 47 51 58 62
46 47 59 61 58 61 64 70 70 67 67 64 65 69 75 78 77 74 71 67 65 68 72 71 63 61 66 63 57 56 58 62 68 71 70 70 71 74 76 76 77 75 73 72 72 71 70 69 70 72 71 72 73 72 71 68 62 57 53 50 49 44 42 44 43 44 43 40 40 41 42 41 40 41 41 40 38 33 30 31 32 31 30 31 30 29 29 29 30 32 34 40 47 51 54 60 64
49 52 58 59 59 57 57 65 65 60 61 64 64 68 73 77 75 73 73 70 66 67 70 69 66 64 63 58 56 57 59 63 67 66 68 70 71 73 75 75 76 74 73 71 70 68 69 70 70 71 72 73 72 72 69 62 59 59 57 55 55 48 44 46 41 40 40 39 41 41 43 43 41 41 40 37 35 31 29 30 30 30 29 28 28 26 26 28 31 34 37 44 52 57 60 65 68
53 58 60 59 58 55 54 60 60 57 59 62 62 63 69 73 73 72 75 74 70 70 69 70 70 65 60 55 57 60 62 65 66 66 66 67 70 72 73 74 73 72 70 68 67 66 67 68 69 69 70 71 69 67 63 57 58 61 59 57 57 50 47 45 39 38 38 37 40 41 42 42 40 39 37 35 32 29 27 29 28 28 27 26 25 24 26 30 34 38 40 46 56 63 67 70 70
51 58 62 59 56 54 54 55 56 56 58 60 59 61 66 68 70 71 76 77 74 73 71 70 70 65 60 56 57 62 64 66 67 67 67 67 70 70 70 69 67 66 64 63 64 64 64 65 66 67 67 66 64 61 56 55 60 60 57 56 56 52 47 40 34 36 38 38 38 39 40 38 37 35 34 32 28 25 26 27 26 26 26 26 26 25 29 33 39 44 45 50 59 66 69 70 69
50 57 60 55 53 55 55 52 53 57 58 58 59 62 66 66 69 72 76 78 74 72 72 72 69 65 62 57 57 63 64 66 67 66 67 69 69 68 65 62 59 58 59 60 61 63 64 64 64 65 65 63 57 55 54 56 60 58 55 54 53 52 44 34 32 35 39 43 40 39 39 37 34 33 33 30 25 24 25 26 25 25 26 28 29 28 32 39 45 51 53 55 60 64 68 68 67
51 54 54 52 55 58 55 53 54 57 59 58 59 63 66 65 68 72 75 78 75 71 72 73 70 65 62 57 56 62 62 66 68 67 68 68 65 64 63 58 56 55 55 57 58 62 63 63 64 63 63 59 52 51 52 55 56 54 52 51 49 43 36 31 34 36 39 45 45 42 41 39 37 36 36 30 25 24 25 26 25 27 31 32 32 32 36 44 49 55 56 57 58 61 66 65 65
49 51 50 49 54 55 52 52 52 53 55 58 59 60 64 65 68 72 75 78 74 72 73 73 71 65 60 55 56 61 62 66 68 67 66 64 62 62 61 57 54 53 53 54 55 58 61 62 64 63 61 56 50 49 50 51 51 49 49 48 42 35 32 34 36 38 39 44 45 44 42 40 39 38 36 31 25 25 26 27 27 31 36 36 36 37 39 44 49 53 56 57 57 60 64 63 64
46 48 49 50 50 50 49 49 48 49 52 55 58 59 64 67 70 72 74 77 74 72 74 74 72 67 62 58 57 59 61 64 64 63 62 61 61 60 58 56 53 52 50 51 52 53 56 58 60 61 61 57 51 48 47 47 46 47 49 46 39 35 36 37 37 39 40 42 44 44 42 40 38 36 34 30 27 28 28 28 29 32 38 39 39 40 41 46 49 51 56 57 57 58 62 65 66
47 49 50 49 49 49 50 49 48 49 51 53 58 62 65 68 70 70 73 76 75 72 74 75 73 68 65 62 59 59 60 61 62 61 61 61 60 59 57 55 53 51 50 49 50 50 51 53 55 56 58 59 55 49 47 45 44 46 48 44 40 39 39 38 38 40 41 41 43 44 42 39 40 39 36 32 30 32 32 30 31 35 40 42 43 41 42 48 49 48 51 55 56 55 59 66 69
48 50 50 50 50 50 50 50 49 50 51 53 60 64 66 68 68 69 72 75 74 72 73 74 72 69 65 63 59 58 58 59 60 59 60 60 59 59 58 57 54 52 51 49 49 50 49 50 51 52 54 58 56 51 49 48 45 46 45 43 41 40 42 42 41 41 42 44 44 43 41 42 44 44 41 38 34 33 33 31 34 38 41 44 47 45 44 48 49 45 45 50 53 54 57 65 69
48 50 51 51 51 51 51 50 48 50 52 54 62 67 65 66 67 68 71 73 71 70 72 74 74 70 65 63 59 57 58 58 57 58 59 58 57 60 59 58 57 52 51 51 51 51 50 50 50 50 51 55 56 53 52 51 50 49 46 46 46 44 47 49 47 46 46 46 45 43 42 45 47 46 45 44 39 35 33 33 37 41 42 45 48 47 45 47 47 43 42 48 52 53 57 63 70
47 48 50 51 51 51 53 52 48 49 54 57 64 68 65 66 69 70 69 71 71 70 71 74 74 72 64 63 61 57 58 57 58 59 60 59 57 59 57 57 58 54 51 51 54 55 53 53 52 51 51 53 56 55 55 54 54 53 51 52 53 51 51 52 52 52 52 48 45 45 47 49 48 47 47 46 41 37 34 33 38 43 43 46 49 46 45 46 43 40 42 47 50 53 58 63 70
44 46 49 50 49 50 53 54 50 48 53 56 61 66 67 69 70 70 70 71 72 70 72 72 72 73 67 65 62 57 57 57 57 58 59 61 59 58 56 57 59 55 52 52 53 55 55 56 56 55 54 53 54 55 55 56 55 55 54 54 56 56 55 53 52 52 54 51 46 48 52 53 52 51 52 49 44 39 36 36 38 42 43 45 49 47 44 43 39 39 43 46 48 53 60 64 68
45 47 50 50 49 50 52 53 52 48 50 54 57 63 68 70 69 69 71 72 71 70 72 71 71 73 70 69 65 59 60 58 57 58 58 59 58 57 56 57 59 57 54 52 52 54 53 54 56 57 57 55 54 54 55 55 55 54 55 55 55 57 57 56 54 50 50 50 48 48 52 54 54 55 55 52 47 43 40 38 38 40 41 43 47 48 45 42 39 40 44 46 48 53 59 62 64
50 50 52 52 50 50 51 52 54 50 49 52 55 59 64 67 67 69 72 73 71 71 73 72 71 74 72 72 69 63 63 61 59 60 58 58 58 57 56 58 60 60 59 57 55 55 54 53 54 56 57 56 55 54 54 55 55 54 55 55 55 56 56 56 56 52 51 50 47 46 48 51 52 52 53 51 49 47 42 39 38 39 40 43 46 48 46 42 40 41 45 46 49 54 57 58 61
50 48 51 52 47 49 51 50 52 50 48 51 53 56 60 61 62 66 71 73 72 73 74 72 71 75 73 72 70 66 64 63 61 62 59 59 61 60 59 61 63 63 63 62 59 57 56 55 54 55 56 57 57 56 55 56 56 55 55 55 55 56 56 55 55 55 55 54 50 48 48 49 48 47 49 50 48 47 43 40 39 38 40 42 45 47 47 43 42 42 45 46 50 53 54 56 60
45 42 47 49 47 50 52 49 48 47 47 52 53 54 59 58 58 63 68 71 72 73 75 74 72 75 75 72 69 68 67 64 61 62 61 61 63 63 63 65 67 65 64 66 66 62 59 58 55 55 55 56 58 58 58 59 58 57 57 56 56 56 56 54 55 57 58 58 56 54 51 49 48 47 47 49 48 46 44 42 41 39 41 43 43 45 44 41 41 43 45 48 52 53 53 55 58
41 39 42 44 46 51 53 50 46 45 47 52 55 54 57 59 60 63 67 68 71 73 74 75 75 75 76 74 71 71 71 67 64 62 61 62 64 63 63 65 67 69 69 70 72 68 63 61 60 58 57 57 57 57 59 61 61 61 59 59 58 57 57 57 56 57 58 59 58 57 55 51 48 47 46 45 45 44 44 44 42 40 41 43 45 46 44 40 41 44 46 49 53 54 53 54 56
37 38 40 41 44 49 50 49 46 45 48 52 57 58 59 62 63 63 65 68 69 72 73 75 76 76 75 75 74 74 73 70 67 63 61 63 64 63 62 63 64 69 73 72 74 74 68 66 64 61 61 60 58 57 59 60 61 61 62 62 61 60 60 59 57 56 57 59 59 59 59 54 49 46 45 44 43 44 46 46 43 41 41 43 46 49 48 45 42 44 47 50 52 53 52 54 56
34 35 37 39 45 48 47 48 45 44 49 52 55 57 58 63 65 64 65 69 71 71 74 75 76 76 76 76 76 78 75 73 70 66 63 64 64 63 62 63 64 67 71 72 74 76 75 73 70 66 64 61 59 59 61 61 61 61 63 63 63 63 61 60 57 55 57 60 61 62 60 57 53 50 47 45 44 45 48 49 47 45 44 45 47 50 51 47 43 43 47 51 52 50 52 55 58
32 31 32 35 41 44 45 49 47 43 47 51 52 54 56 61 66 65 64 68 73 74 75 76 77 78 78 77 77 79 78 76 74 69 67 67 66 66 65 65 67 67 68 71 74 75 77 77 76 73 68 64 61 60 62 63 62 62 64 65 64 65 63 62 59 58 59 61 62 62 62 61 59 57 54 51 48 46 49 52 51 49 49 49 50 52 52 48 43 43 48 51 51 48 50 56 59
28 28 31 34 38 43 47 51 49 44 46 49 50 52 54 59 64 64 63 64 70 75 76 77 78 80 80 79 80 81 81 80 78 72 69 69 68 70 70 68 69 69 68 70 72 74 76 76 77 75 73 71 65 60 59 60 60 62 64 65 66 66 66 64 62 61 60 61 62 62 62 63 62 62 62 59 56 51 50 53 54 52 52 53 53 54 53 49 44 43 46 48 48 47 50 56 59
24 27 34 37 38 43 48 48 47 46 45 47 48 50 53 58 63 63 62 60 63 69 74 76 78 79 79 80 81 81 81 81 80 76 72 71 71 71 71 71 71 70 70 70 71 74 77 77 77 77 75 73 69 64 61 59 59 60 62 64 65 67 67 68 66 64 62 61 61 60 61 61 62 64 64 63 60 55 51 51 53 53 53 54 54 55 54 49 46 44 43 45 46 48 52 57 60
22 27 33 36 36 40 45 45 45 45 45 45 47 49 52 57 61 62 60 57 58 63 69 74 77 78 78 80 80 80 81 82 82 81 77 75 74 74 74 73 72 72 72 71 71 73 76 76 77 78 76 75 73 69 66 64 63 62 62 63 65 65 67 69 69 67 64 62 61 60 59 60 62 63 65 65 62 58 54 51 52 52 52 53 52 54 53 49 47 44 42 43 44 49 55 56 58
22 25 28 32 34 36 42 44 44 46 47 45 47 52 56 57 60 60 56 54 56 61 66 71 75 78 79 79 79 79 79 81 82 83 82 80 78 77 77 77 76 76 75 72 71 73 75 76 78 79 78 77 75 73 69 68 67 65 63 63 65 66 67 68 70 69 68 65 62 60 60 62 63 64 65 65 64 61 57 54 54 53 52 51 50 51 51 47 47 45 41 43 46 53 56 55 58
22 24 26 30 31 33 39 42 43 49 50 46 48 55 59 59 59 58 56 54 55 60 64 69 73 75 78 79 78 78 77 77 78 80 82 84 82 80 79 79 78 78 76 74 73 74 74 76 78 79 79 78 77 74 70 68 68 66 62 62 64 66 66 68 70 70 70 69 66 63 63 63 64 66 67 66 64 62 59 57 56 55 54 51 49 49 48 46 46 45 42 43 48 54 56 56 59
24 24 25 28 30 32 37 39 40 45 46 44 47 54 57 56 56 57 59 56 55 58 60 65 71 72 73 74 74 75 74 73 74 76 78 81 82 81 79 79 78 77 77 77 77 75 75 77 78 77 78 79 78 74 70 69 69 66 62 61 63 65 65 66 69 70 70 70 70 68 66 66 66 67 68 66 65 61 59 58 57 56 54 52 50 48 46 46 47 45 44 45 50 55 56 57 56
24 24 24 27 30 32 34 34 36 38 40 42 46 51 54 54 53 54 57 57 56 56 57 59 64 67 68 67 66 68 70 71 72 74 76 78 79 79 78 78 77 77 78 79 78 76 75 76 76 77 78 79 79 77 73 71 70 67 63 62 63 64 65 66 69 70 70 70 70 68 68 68 67 67 67 67 66 62 58 57 58 57 55 53 52 48 45 46 48 47 45 49 55 57 56 55 52
24 23 23 25 27 31 33 32 35 37 40 44 45 48 52 54 53 51 53 55 54 54 55 55 56 61 64 63 63 64 65 67 69 71 75 76 77 76 77 77 76 76 77 77 76 75 74 73 74 77 79 79 79 79 77 75 73 69 66 63 63 65 66 68 69 71 72 70 69 68 68 68 67 67 68 68 68 65 60 57 57 57 56 54 53 50 46 47 49 48 47 51 58 57 55 53 49
22 21 22 23 23 28 31 32 34 37 42 45 43 45 49 51 51 50 51 53 51 50 54 53 52 54 58 61 62 63 62 65 67 69 71 74 75 75 76 76 75 75 74 74 74 74 72 70 72 75 77 79 80 79 79 77 75 72 69 67 66 66 66 68 70 71 72 72 71 70 69 68 68 68 69 69 68 68 64 61 58 58 57 56 55 52 47 46 49 50 49 51 56 57 54 51 47
19 18 19 21 22 27 32 34 37 40 44 42 40 43 46 46 48 49 51 51 47 49 54 54 51 50 51 53 57 59 60 61 64 67 69 72 73 73 74 74 72 71 72 72 73 73 71 68 68 71 74 77 78 79 79 78 77 75 74 72 71 69 67 67 70 70 70 71 72 72 71 70 70 68 68 68 68 68 67 66 63 60 59 58 57 54 49 46 48 51 51 50 53 55 53 50 47
16 17 18 19 23 28 33 38 39 38 40 38 38 41 40 41 44 46 48 47 46 50 53 52 50 49 48 48 51 55 57 58 61 65 68 70 70 70 71 71 70 70 71 71 71 71 70 67 66 67 70 72 75 76 78 78 79 79 77 76 75 72 69 68 70 69 69 70 71 72 71 70 70 68 68 67 66 67 67 68 66 62 60 59 58 56 51 47 47 51 53 52 52 54 52 48 46
16 20 21 20 23 26 33 40 40 35 34 33 36 38 38 41 43 42 44 45 46 48 48 47 47 47 47 47 49 51 53 56 59 63 66 67 68 68 69 69 69 69 69 69 68 67 67 66 66 66 65 67 70 73 75 77 79 80 80 79 77 74 71 70 71 70 70 71 71 71 71 70 69 68 68 66 65 65 66 66 66 64 60 59 58 56 53 49 46 48 50 51 50 51 51 47 45
18 20 22 21 22 26 32 37 37 34 31 30 35 37 37 40 40 39 41 41 43 44 43 45 45 46 46 46 48 49 48 50 54 58 61 64 67 68 68 68 67 67 67 66 64 64 65 66 66 66 66 66 67 69 72 75 78 81 81 82 80 76 74 73 72 71 72 72 71 71 72 71 69 68 68 67 65 64 64 64 63 63 61 59 57 56 54 51 46 44 44 47 49 51 50 48 45
18 20 21 20 23 27 30 32 33 33 31 31 35 37 38 39 37 39 41 41 42 42 42 44 45 45 46 47 49 49 46 46 47 50 55 60 65 67 68 67 66 65 64 62 61 61 62 62 63 64 64 64 64 67 71 72 75 79 81 82 81 77 76 74 71 71 72 71 71 71 73 73 71 70 69 69 68 66 65 64 62 62 60 58 57 56 55 52 48 44 42 44 48 50 50 49 47
17 19 20 20 22 24 27 29 27 28 30 32 35 38 39 39 38 42 46 47 46 45 45 45 45 45 45 46 49 49 47 45 46 49 55 58 62 65 66 65 65 64 61 59 59 59 59 58 58 58 59 60 63 67 70 71 73 76 78 80 79 76 75 73 70 69 69 68 69 71 72 74 73 72 71 71 70 69 67 66 65 63 61 60 57 56 55 52 50 47 44 44 46 47 49 49 48
17 18 19 19 20 21 23 25 25 28 33 33 36 41 41 40 42 43 46 49 51 52 50 48 46 44 44 45 47 49 49 48 49 53 59 62 64 65 65 66 65 62 60 59 59 60 59 57 55 56 58 58 60 64 68 71 73 74 76 79 78 75 74 71 69 68 66 65 68 70 71 72 73 74 74 73 72 71 69 67 66 64 62 61 58 56 55 53 51 50 47 45 46 46 46 47 46
17 17 19 19 20 21 22 23 24 29 35 34 37 44 43 43 45 43 44 49 52 53 51 49 47 45 43 44 46 49 50 51 55 58 62 64 65 64 65 66 65 62 60 58 58 58 58 57 56 58 59 59 57 58 63 69 72 72 75 79 79 77 74 71 67 64 63 64 67 69 70 71 72 74 74 74 73 73 70 68 66 65 64 61 59 56 55 53 52 51 48 47 47 46 44 44 44
16 16 18 19 20 22 23 22 22 25 32 35 38 43 43 40 40 39 42 47 50 51 49 47 48 46 43 44 46 48 50 53 57 60 60 60 60 61 63 63 63 61 59 57 56 56 56 58 58 58 59 58 56 56 58 64 70 72 74 78 79 78 74 70 65 60 60 62 64 67 69 69 70 72 73 74 74 74 73 69 66 64 64 63 60 58 55 53 52 50 49 48 48 47 44 43 42
16 16 17 19 20 22 21 22 23 24 32 38 38 41 42 39 37 36 39 43 45 47 46 46 47 44 41 44 48 48 50 53 56 56 55 55 54 55 57 58 58 58 58 57 55 55 57 59 58 58 59 57 58 61 61 62 69 73 75 77 78 77 74 70 64 59 57 60 62 65 67 67 67 69 72 73 74 74 74 71 67 64 64 65 62 59 56 55 53 50 49 48 48 48 46 43 41
16 16 17 17 18 19 19 20 21 22 32 40 41 41 40 39 39 36 36 41 43 45 45 46 45 40 39 44 46 46 48 51 51 49 50 51 51 51 53 54 54 55 56 55 53 54 57 58 57 58 58 55 56 62 64 65 69 73 73 74 76 76 75 72 66 59 57 58 60 62 64 65 65 67 70 71 72 73 73 72 69 66 65 67 65 61 59 59 57 53 49 48 47 48 47 44 41
17 17 18 17 17 18 18 20 21 20 27 35 39 42 40 37 38 36 36 40 43 44 44 43 42 38 38 42 44 44 44 46 46 45 46 48 49 50 52 53 53 53 51 48 48 51 56 57 56 56 56 55 56 62 68 70 71 70 69 71 74 76 76 73 68 62 59 60 62 63 63 61 60 62 67 68 69 71 72 71 70 68 67 67 65 63 62 63 61 56 51 49 48 49 48 44 40